リニア-ヒル彗星

P/2008 QP20 ( LINEAR-Hill )

English version
Home page
Updated on August 17, 2020

---------------------------------------------------------------------

・ プロフィール

発見日 2008年8月25日、9月23日
発見光度 20.7等、17.7等
発見者 Lincoln Laboratory Near-Earth Asteroid Research project, R. E. Hill (Catalina Sky Survey)

・ 写真集

・ 軌道要素

                    Epoch = 2008 Oct. 21.0 TT
     T = 2008 Nov.  2.69871 TT        Peri. =  72.03934
     e = 0.5063110                    Node  = 325.15191 2000.0
     q = 1.7231412 AU                 Incl. =   7.74979
       a =  3.4903371 AU   n = 0.15114821   P =   6.52 years

・ 星図

・ 光度変化

        m1 = 11.0 + 5 logΔ + 25.0 log r(t - 45)

---------------------------------------------------------------------

軌道要素はCBET 4832に掲載されたものです。
星図はステラナビゲータ Ver.8 (アストロアーツ) で作成したものです。
光度グラフはComet for Windowsで作成したものです。

---------------------------------------------------------------------

Copyright(C) Seiichi Yoshida (comet@aerith.net). All rights reserved.